Volver al catálogo

STARLINK-5805

ActivoComunicacionesVLEO
NORAD 56912·PAYLOAD·🇺🇸 United States

Lanzado Jun 12, 2023 desde Cape Canaveral Space Force Station

Loading…

Próximos Pases (próximas 24 horas)

TLE

ActualizadoSource: CelesTrak SupGP

Época: Sep 14, 2026, 22:09 UTC

1 56912C 23083AN  26257.92340278  .00031686  00000+0  11483-2 0  2575
2 56912  43.0032  82.1381 0001430 276.6998 214.0749 15.27545427    15

Sigue STARLINK-5805 en tiempo real con AllMySat

Download on the App Store